Location: Ahstedt
(52.2048°N, 10.1060°E)
Time: 23:03:56
(UTC+00:00)

SL-12 R/B(2) - Pass Details

Date: 18 January 2026
Orbit: 1171 x 2178 km, 63.4° (Epoch: 7 February)

Event Time Altitude Azimuth Distance (km) Brightness Sun altitude
Rises 05:33:55 0° 224° (SW) 4,231 6.5 -15.5°
Reaches altitude 10° 05:36:29 10° 225° (SW) 3,346 6.0 -15.1°
Maximum altitude 05:44:41 88° 315° (NW) 1,518 4.4 -13.9°
Drops below altitude 10° 05:54:54 10° 47° (NE) 4,107 7.1 -12.4°
Sets 05:58:24 0° 48° (NE) 5,239 7.7 -11.9°
